This demonstration page uses our WeatherBlox Daily Observations layout. Learn more.

36.17497, -115.13722

Hourly Observations for January 4, 2018

Temp ( °F °C ) Dew Point ( °F °C ) Humidity (%) Winds ( mph kmh ) Pressure ( in mb ) Visibility ( mi km ) Precip ( " mm )
12:53 am 00:53 Clear 47 8.3 15 -9.4 28 28 NW 7 11 30.19 1022 10 16.0934 0 0
1:53 am 01:53 Clear 44 6.7 14 -10 30 30 Calm 30.19 1023 10 16.0934 0 0
2:53 am 02:53 Clear 45 7.2 14 -10 29 29 WNW 3 6 30.19 1022 10 16.0934 0 0
3:53 am 03:53 Clear 43 6.1 16 -8.9 34 34 N 6 9 30.19 1023 10 16.0934 0 0
4:53 am 04:53 Clear 42 5.6 13 -10.6 30 30 NW 5 7 30.21 1023 10 16.0934 0 0
5:53 am 05:53 Clear 41 5 15 -9.4 35 35 NW 5 7 30.22 1023 10 16.0934 0 0
6:53 am 06:53 Sunny 42 5.6 15 -9.4 33 33 Calm 30.23 1024 10 16.0934 0 0
7:53 am 07:53 Sunny 44 6.7 14 -10 30 30 Calm 30.25 1024 10 16.0934 0 0
8:53 am 08:53 Sunny 50 10 11 -11.7 21 21 Calm 30.26 1025 10 16.0934 0 0
9:53 am 09:53 Sunny 54 12.2 11 -11.7 18 18 Calm 30.27 1025 10 16.0934 0 0
10:53 am 10:53 Sunny 57 13.9 7 -13.9 13 13 SSE 5 7 30.25 1025 10 16.0934 0 0
11:53 am 11:53 Sunny 60 15.6 4 -15.6 10 10 SE 5 7 30.22 1023 10 16.0934 0 0
12:53 pm 12:53 Sunny 62 16.7 3 -16.1 9 9 ESE 5 7 30.18 1022 10 16.0934 0 0
1:53 pm 13:53 Sunny 63 17.2 3 -16.1 9 9 ESE 5 7 30.18 1022 10 16.0934 0 0
2:53 pm 14:53 Sunny 63 17.2 2 -16.7 8 8 ESE 5 7 30.17 1022 10 16.0934 0 0
3:53 pm 15:53 Sunny 63 17.2 3 -16.1 9 9 SSE 3 6 30.18 1022 10 16.0934 0 0
4:53 pm 16:53 Clear 62 16.7 5 -15 10 10 Calm 30.18 1022 10 16.0934 0 0
5:53 pm 17:53 Clear 56 13.3 9 -12.8 15 15 Calm 30.2 1023 10 16.0934 0 0
6:53 pm 18:53 Clear 54 12.2 11 -11.7 18 18 Calm 30.21 1023 10 16.0934 0 0
7:53 pm 19:53 Clear 51 10.6 14 -10 23 23 NW 6 9 30.23 1024 10 16.0934 0 0
8:53 pm 20:53 Clear 50 10 13 -10.6 22 22 NW 5 7 30.24 1024 10 16.0934 0 0
9:53 pm 21:53 Clear 48 8.9 13 -10.6 24 24 NW 7 11 30.23 1024 10 16.0934 0 0
10:53 pm 22:53 Clear 46 7.8 14 -10 27 27 NW 3 6 30.23 1024 10 16.0934 0 0
11:53 pm 23:53 Clear 45 7.2 14 -10 29 29 NNW 6 9 30.23 1024 10 16.0934 0 0

Powered by AerisWeather